Tracking 31027 objects as of 19-Jul-2025
HD Live streaming from Space Station
objects crossing your sky now

COSMOS 249 DEB

Track COSMOS 249 DEB now!
10-day predictions


NORAD ID: 14410
Int'l Code: 1968-091CL
Perigee: 633.8 km
Apogee: 1,124.4 km
Inclination: 62.2 °
Period: 102.4 minutes
Semi major axis: 7250 km
RCS: 0.0157 m2 (small)
Launch date: October 20, 1968
Source: Commonwealth of Independent States (former USSR) (CIS)
Launch site: TYURATAM MISSILE AND SPACE COMPLEX (TTMTR)

Note: This is SATELLITE DEBRIS
Your satellite tracking list
NOAA 16 DEB
Track 1 satellite(s)




NASA's NSSDC Master Catalog

Two Line Element Set (TLE):
1 14410U 68091CL  25197.32352817  .00002985  00000-0  11198-2 0  9995
2 14410  62.2026 157.6976 0338310 194.6176 326.3270 14.06332698 56807
Source of the keplerian elements: AFSPC